STARLINK-2488 (48145 NORAD) Tracking and Keplerian Element Data

This shows tracking and keplerian element data for the satellite.

Feedback or suggestion? Click here.




ElementValue
Catalog48145
NameSTARLINK-2488
Epoch Orbit181
Epoch Day136.83334491
Epoch Year2021
RAAN145.805
Inclination53.0473
Eccentricity0.0002662
Argument of Perigee26.0896
Mean Anonmoly127.9859
Mean Motion15.73233427
Decay Rate0.00038327
L11 48145U 21027BF 21136.83334491 .00038327 00000-0 27579-3 0 9998
L22 48145 53.0473 145.8050 0002662 26.0896 127.9859 15.73233427 1814

Live tracking and technical data element details for STARLINK-2488 (NORAD 48145). STARLINK-2488 can be tracked NOW for your location showing map with azimuth and elevation plus other details from your city location.

Track the satellite on the map from your city or location and see movement details for azimuth, elevation, latitude, longitude, range, height, and movement on the map or in text.







IsCatalogInMostPopularTable: catalog: 48145, numindb: 14
Update: records affected: 1



GetName: 48145 STARLINK-2488

Hit Count: updated at: Mon, 17 May 2021 16:24:45 GMT